Regional Weather Roundup
Issued by NWS

Home | Current Version | Previous Version | Text Only | Print | Product List | Glossary Off
Versions: 1 2 3 4 5 6 7 8 9 10 11 12 13 14 15 16 17 18 19 20 21 22 23 24 25 26 27 28 29 30 31 32 33 34 35 36 37 38 39 40 41 42 43 44 45 46 47 48 49 50

000
ASUS43 KLOT 281003
RWRIL

ILLINOIS REGIONAL WEATHER ROUNDUP
NATIONAL WEATHER SERVICE CHICAGO/ROMEOVILLE IL
400 AM CST TUE FEB 28 2017

NOTE: "FAIR" INDICATES FEW OR NO CLOUDS BELOW 12,000 FEET WITH NO
SIGNIFICANT WEATHER AND/OR OBSTRUCTIONS TO VISIBILITY.

* THESE STATIONS ARE NOT UNDER NWS QUALITY CONTROL. THEY ALSO MAY NOT
  REPORT WEATHER SUCH AS PRECIPITATION OR FOG.

ILZ001-002-007-009-015-016-024-281100-
NORTHWEST ILLINOIS

CITY           SKY/WX    TMP DP  RH WIND       PRES   REMARKS
MOLINE         CLOUDY    52  48  86 S9        29.79F
STERLING*      CLOUDY    50  47  89 S8        29.82F
$$

ILZ003-004-008-010-011-017-018-281100-
NORTH CENTRAL ILLINOIS

CITY           SKY/WX    TMP DP  RH WIND       PRES   REMARKS
ROCKFORD       CLOUDY    47  43  86 SE13      29.84F
FREEPORT*      CLOUDY    44  43  95 SE8       29.82F
ROCHELLE*      CLOUDY    48  46  92 S17       29.84F
DE KALB*       CLOUDY    47  45  93 S20       29.84F
PERU*          CLOUDY    48  45  87 S12       29.85F
$$

ILZ005-006-012>014-019>023-281100-
NORTHEAST ILLINOIS

CITY           SKY/WX    TMP DP  RH WIND       PRES   REMARKS
CHICAGO-OHARE  CLOUDY    49  45  86 S16       29.85F
CHICAGO-MIDWAY CLOUDY    48  43  82 S15       29.88F
AURORA         CLOUDY    49  45  86 S16G24    29.85F
LANSING*       CLOUDY    46  46 100 S13       29.91F
JOLIET*        CLOUDY    49  47  91 SE9G16    29.89S
WAUKEGAN       LGT RAIN  41  39  93 SE9       29.87F FOG
DUPAGE AIRPORT CLOUDY    48  44  86 S13       29.85F
KANKAKEE*      CLOUDY    49  45  87 SE15G21   29.91F
WHEELING       CLOUDY    47  43  86 S12       29.87F
MORRIS*        CLOUDY    48  45  90 S16G23    29.86F
ROMEOVILLE*    CLOUDY    47  47  99 S18       29.87F
NORTHERLY ISL    N/A     48  44  86 S12         N/A
$$

LMZ740>746-281100-
SOUTHERN LAKE MICHIGAN

STATION/POSITION SKY/WX   TEMP    WIND        PRES    VSBY  WAVE
                          AIR SEA DIR/SP/G                  HT/PER
                          (F)     (DEG/KT/KT) (MB)    (MI)  (FT/S)
HARRISON CRIB              46     170/ 19/ 20   N/A
BURNHAM HARBOR             47     190/ 13/ 16   N/A
CALUMET HARBOR             47     150/ 12/ 17 1011.8F
BURNS HARBOR               47     160/ 12/ 18 1013.5F
MICHIGAN CITY              45     140/ 17/ 23   N/A
$$

ILZ025>027-034>036-040-047-049-050-058-095>099-281100-
WEST-CENTRAL ILLINOIS

CITY           SKY/WX    TMP DP  RH WIND       PRES   REMARKS
QUINCY         CLOUDY    54  50  86 S13       29.78F
GALESBURG*     CLOUDY    48  46  93 SE7       29.80F
MACOMB*        MOCLDY    52  48  86 S10       29.82F
JACKSONVILLE*  CLOUDY    54  50  86 S15       29.84F
PITTSFIELD*    MOCLDY    55  51  85 S9        29.83F
$$

ILZ028>032-037-038-041>044-048-051>054-059>061-281100-
CENTRAL ILLINOIS

CITY           SKY/WX    TMP DP  RH WIND       PRES   REMARKS
PONTIAC        CLOUDY    49  48  95 S15       29.89F
BLOOMINGTON    CLOUDY    49  47  93 S14       29.89F
DECATUR        PTCLDY    50  47  89 S15       29.90F
PEORIA         CLOUDY    52  49  89 S14       29.84F
LACON*         CLOUDY    50  48  92 S8        29.83F
LINCOLN*       CLOUDY    51  50  95 S13       29.87F
SPRINGFIELD    MOCLDY    54  49  83 S15       29.86F
TAYLORVILLE    MOCLDY    50  48  93 S14       29.89F
$$

ILZ033-039-045-046-055>057-062-063-281100-
EAST-CENTRAL ILLINOIS

CITY           SKY/WX    TMP DP  RH WIND       PRES   REMARKS
CHAMPAIGN      CLOUDY    50  46  86 S16       29.91F
RANTOUL*       CLOUDY    50  49  93 S12       29.91F
MATTOON        PTCLDY    50  48  93 S16G22    29.93F
PARIS*         CLOUDY    48  47  97 S12       29.96F
$$

ILZ079-100>102-281100-
SOUTHWEST ILLINOIS

CITY           SKY/WX    TMP DP  RH WIND       PRES   REMARKS
ALTON          CLOUDY    53  50  89 SE6       29.90F
BELLEVILLE     MOCLDY    52  52 100 SE9       29.90S
CAHOKIA*       PTCLDY    55  50  83 S6        29.89F
SPARTA*        CLOUDY    53  51  92 S9        29.94S THUNDER
$$

ILZ064>066-069>071-074>076-080>082-084>086-088>090-092>094-281100-
SOUTH-CENTRAL ILLINOIS

CITY           SKY/WX    TMP DP  RH WIND       PRES   REMARKS
CARBONDALE     LGT RAIN  54  51  90 S14       29.95F
CAIRO*         TSTM      55  52  92 S5        29.99F
EFFINGHAM*     LGT RAIN  51  50  99 SE9       29.97R
MARION         CLOUDY    55  54  94 S10       29.97F THUNDER
MT. VERNON     LGT RAIN  53  50  89 S7        29.96R
CENTRALIA*     TSTM      53  52  96 S8        29.94S
SALEM*         TSTM      54  50  86 S12       29.95S
METROPOLIS*    RAIN      55  52  90 CALM      30.00F
$$

ILZ067-068-072-073-078-083-087-091-281100-
SOUTHEAST ILLINOIS

CITY           SKY/WX    TMP DP  RH WIND       PRES   REMARKS
LAWRENCEVILLE  CLOUDY    51  50  96 S5        30.01S
FLORA*         CLOUDY    53  50  89 S6        29.97S
FAIRFIELD*     CLOUDY    53  50  91 S3        29.95F THUNDER
HARRISBURG*    CLOUDY    54  51  88 S9        29.97F THUNDER
ROBINSON*      CLOUDY    49  48  96 SE12      29.99F
CARMI*         CLOUDY    51  49  93 S10       29.97F
$$

ABBREVIATIONS USED IN REMARKS
   TC - TEMPERATURE IN CELSIUS
  WCI - WIND CHILL INDEX
   HX - HEAT INDEX
  VSB - VISIBILITY
$$





USA.gov is the U.S. government's official web portal to all federal, state and local government web resources and services.